Location: Pasarilla del Rebollar
(40.6790°N, 5.0062°W)
Time: 11:55:34
(UTC+00:00)

Cosmos 2219 Rocket - Pass Details

Date: 22 April 2026
Orbit: 826 x 846 km, 71.0° (Epoch: 16 May)

Event Time Altitude Azimuth Distance (km) Brightness Sun altitude
Rises 04:43:03 0° 322° (NW) 3,393 5.2 -9.4°
Reaches altitude 10° 04:45:59 10° 308° (NW) 2,458 4.4 -8.8°
Maximum altitude 04:50:12 22° 259° (W) 1,759 3.3 -8.1°
Drops below altitude 10° 04:54:24 10° 210° (SSW) 2,454 4.1 -7.4°
Sets 04:57:21 0° 196° (SSW) 3,386 5.0 -6.9°
